Phoenix Deer Valley, AZ

8:05 AM MST on December 11, 2019 (GMT -0700)
Phoenix-Deer Valley Municipal

Weather History for KDVT - November, 2019

Change the Weather History Date:

Friday, November 15, 2019

  Actual Average Record
Temperature  
Mean Temperature 69 °F -  
Max Temperature 81 °F 70 °F 89 °F (1999)
Min Temperature 57 °F 50 °F 37 °F (2000)
Cooling Degree Days 4    
Growing Degree Days 19 (Base 50)    
Moisture  
Dew Point 32 °F    
Average Humidity 27    
Maximum Humidity 40    
Minimum Humidity 17    
Precipitation  
Precipitation 0.00 in - - ()
Sea Level Pressure  
Sea Level Pressure 30.00 in    
Wind  
Wind Speed 2 mph ()    
Max Wind Speed 10 mph    
Max Gust Speed -    
Visibility 10.0 miles    
Events      
Averages and records for this station are not official NWS values.
T = Trace of Precipitation, MM = Missing Value Source: Averaged Metar Reports

Daily Weather History Graph

Daily Weather History Graph

Search for Another Location

Airport or City:

Astronomy

Nov. 15, 2019 Rise Set
Actual Time 7:00 AM MST 5:25 PM MST
Civil Twilight 6:33 AM MST 5:51 PM MST
Nautical Twilight 6:03 AM MST 6:21 PM MST
Astronomical Twilight 5:33 AM MST 6:51 PM MST
Moon 8:09 PM MST (11/15) 9:55 AM MST (11/15)
Length of Visible Light 11h 18m
Length of Day
10h 25m
Waning Gibbous, 89% of the Moon is Illuminated
Nov 15
Waning Gibbous
Nov 19
Last Quarter
Nov 26
New
Dec 3
First Quarter
Dec 11
Full

Hourly Weather History & Observations

Time (MST) Temp. Dew Point Humidity Pressure Visibility Wind Dir Wind Speed Gust Speed Precip Events Conditions
12:53 AM 59.0 °F 34.0 °F 39% 30.06 in 10.0 mi Calm Calm - N/A   Clear
1:53 AM 57.0 °F 33.1 °F 40% 30.05 in 10.0 mi Calm Calm - N/A   Clear
2:53 AM 59.0 °F 33.1 °F 38% 30.05 in 10.0 mi Calm Calm - N/A   Clear
3:53 AM 59.0 °F 32.0 °F 36% 30.04 in 10.0 mi Calm Calm - N/A   Clear
4:53 AM 57.0 °F 32.0 °F 39% 30.05 in 10.0 mi Calm Calm - N/A   Clear
5:53 AM 57.0 °F 32.0 °F 39% 30.06 in 10.0 mi Calm Calm - N/A   Clear
6:53 AM 57.9 °F 30.9 °F 36% 30.07 in 10.0 mi NE 4.6 mph - N/A   Clear
7:53 AM 59.0 °F 30.9 °F 35% 30.09 in 10.0 mi North 4.6 mph - N/A   Clear
8:53 AM 66.9 °F 32.0 °F 27% 30.08 in 10.0 mi East 3.5 mph - N/A   Clear
9:53 AM 72.0 °F 33.1 °F 24% 30.08 in 10.0 mi Calm Calm - N/A   Clear
10:53 AM 73.9 °F 34.0 °F 23% 30.07 in 10.0 mi South 3.5 mph - N/A   Clear
11:53 AM 77.0 °F 33.1 °F 20% 30.04 in 10.0 mi South 4.6 mph - N/A   Clear
12:53 PM 80.1 °F 30.9 °F 17% 30.01 in 10.0 mi Calm Calm - N/A   Clear
1:53 PM 80.1 °F 30.9 °F 17% 29.98 in 10.0 mi Variable 5.8 mph - N/A   Clear
2:53 PM 81.0 °F 32.0 °F 17% 29.95 in 10.0 mi SE 5.8 mph - N/A   Clear
3:53 PM 80.1 °F 32.0 °F 17% 29.94 in 10.0 mi Calm Calm - N/A   Clear
4:53 PM 79.0 °F 30.9 °F 17% 29.93 in 10.0 mi South 3.5 mph - N/A   Clear
5:53 PM 75.9 °F 32.0 °F 20% 29.94 in 10.0 mi Calm Calm - N/A   Clear
6:53 PM 72.0 °F 30.9 °F 22% 29.94 in 10.0 mi Calm Calm - N/A   Clear
7:53 PM 69.1 °F 32.0 °F 25% 29.94 in 10.0 mi Calm Calm - N/A   Clear
8:53 PM 69.1 °F 32.0 °F 25% 29.94 in 10.0 mi NNE 10.4 mph - N/A   Clear
9:53 PM 66.0 °F 30.9 °F 27% 29.94 in 10.0 mi NE 8.1 mph - N/A   Clear
10:53 PM 68.0 °F 30.9 °F 25% 29.94 in 10.0 mi NE 4.6 mph - N/A   Clear
11:53 PM 64.9 °F 30.9 °F 28% 29.93 in 10.0 mi NE 9.2 mph - N/A   Clear